GFSGBSN_con_3kmhel_159.txt.gz
Helicity
77 76 81 80 83 91 94 94 100 97 93 80 64 49 30 29 37 22 6 -8 -5 0 19 23 24 46 11 56 44 25 -51 -28 23 48 56 62 54 23 31 46 80 47 17 76 115 53 48
89 91 92 82 83 127 144 155 168 152 120 81 63 55 53 59 57 43 32 12 5 4 25 21 26 34 17 36 53 91 21 13 46 54 55 77 46 39 22 51 73 39 -1 9 33 34 46
75 78 96 100 158 191 209 206 154 112 74 45 76 83 95 90 66 49 35 26 16 13 21 34 36 29 42 62 61 35 22 32 43 45 50 66 65 81 64 40 71 62 37 28 15 54 76
162 131 184 261 253 250 218 180 115 88 57 91 99 126 120 97 60 42 32 32 22 29 32 36 49 61 63 57 39 53 45 52 33 23 55 43 74 47 66 49 52 60 76 88 57 56 59
162 213 244 268 242 184 214 198 219 201 187 142 93 124 125 87 64 41 37 24 15 22 33 49 62 59 44 52 78 64 35 70 79 51 52 44 63 61 64 93 97 73 99 118 112 34 207
92 117 157 213 246 303 298 310 283 239 245 125 126 97 76 73 53 41 36 38 39 81 64 61 59 112 57 84 114 82 42 40 74 81 65 58 80 94 83 127 112 122 164 106 50 82 114
94 94 89 70 86 103 150 240 256 169 136 128 70 119 77 64 49 54 47 60 100 115 92 76 105 119 114 105 64 69 57 68 71 94 105 62 143 125 69 100 132 145 154 88 -14 -53 62
101 109 98 71 58 28 15 35 54 31 91 104 96 95 85 49 59 74 83 90 154 116 57 52 45 70 18 63 120 80 121 127 88 98 96 121 119 28 74 113 142 171 160 130 90 52 48
107 107 104 69 46 52 64 37 37 68 60 92 139 127 94 138 114 80 104 111 165 120 114 31 114 132 70 116 115 52 114 131 105 124 95 124 105 80 65 120 115 120 118 94 91 90 118
119 103 85 77 79 68 55 64 78 83 86 93 108 114 79 71 83 131 135 236 136 109 158 80 132 132 228 251 216 77 50 220 171 126 102 140 74 66 185 220 204 141 85 157 175 157 96
152 121 103 89 80 89 81 83 85 68 57 50 55 85 88 118 160 221 155 116 78 100 178 102 149 54 98 95 159 117 158 257 169 124 153 154 180 163 142 113 140 151 193 153 128 97 90
152 147 124 95 90 97 90 85 68 58 46 38 59 84 79 124 140 131 100 71 112 275 235 157 137 101 119 53 82 86 56 81 84 67 44 53 32 109 104 112 127 133 126 119 99 108 135
176 157 136 111 94 107 96 96 76 55 43 29 39 62 93 145 200 161 93 130 312 399 194 183 167 104 86 120 108 103 88 103 111 160 126 105 91 128 94 127 105 71 113 118 94 117 117
196 175 158 127 99 109 121 118 87 75 62 39 24 64 95 95 170 137 163 262 322 195 162 211 198 122 111 72 80 60 77 112 47 33 76 129 182 117 51 127 146 108 73 96 53 127 141
174 167 159 144 99 117 113 100 106 99 86 44 31 73 105 108 119 132 237 332 307 232 170 216 198 223 200 104 155 156 136 131 108 75 152 203 187 115 118 99 133 140 108 67 124 111 144
162 179 162 149 126 81 108 133 134 127 106 51 56 96 113 87 76 176 262 305 250 208 226 240 238 150 153 106 171 175 160 83 98 68 74 183 169 88 74 120 100 131 75 119 110 149 143
136 155 165 159 146 111 96 129 141 151 111 90 70 139 117 44 136 245 314 337 187 102 180 238 260 223 170 155 183 167 136 72 127 101 73 104 189 162 101 118 138 112 91 95 117 124 147
109 110 127 131 142 123 93 122 144 161 153 176 118 219 85 147 275 281 231 303 197 171 183 185 157 172 138 192 217 225 277 221 123 178 226 189 178 129 91 56 21 52 13 43 100 79 118
86 87 103 106 108 122 111 88 152 171 233 224 206 133 112 130 262 253 211 152 81 173 192 139 164 105 147 230 257 236 262 245 191 168 198 236 261 184 131 56 64 89 50 72 112 97 52
71 78 89 95 99 105 112 78 147 203 168 221 255 203 204 165 191 220 170 148 137 86 182 213 190 175 209 209 180 168 138 95 125 142 131 193 205 165 148 104 96 60 84 112 113 138 127
57 61 69 84 90 92 118 91 108 226 158 258 359 250 175 197 224 149 169 209 148 145 195 146 160 145 157 150 150 141 105 75 94 145 113 118 141 135 52 50 44 17 16 18 44 77 145
63 60 65 68 97 95 117 104 44 211 175 185 253 282 205 174 162 164 114 159 143 94 137 95 94 140 98 115 133 70 61 83 69 149 161 149 93 82 51 50 66 57 65 78 82 65 70
74 70 69 73 72 89 83 104 75 229 210 336 203 210 206 121 130 153 159 59 127 98 102 142 61 60 97 117 147 168 165 144 147 147 121 126 132 102 56 58 61 43 127 122 116 85 84
69 71 67 58 59 76 81 97 67 33 224 375 185 241 210 188 163 96 55 65 93 139 111 158 126 151 121 105 137 129 98 71 68 80 124 141 102 106 106 91 72 88 77 39 93 32 45
41 49 58 58 53 58 80 84 70 53 290 317 232 153 204 148 139 79 14 34 30 122 157 207 217 109 109 125 94 41 32 61 66 84 92 123 118 122 128 132 94 -5 10 45 96 -2 11
38 40 44 47 49 48 60 107 76 65 137 211 213 91 114 121 56 66 58 32 90 138 120 82 154 109 104 89 100 91 60 58 40 24 32 88 113 116 117 122 101 72 54 -3 36 1 35
36 38 40 44 47 42 36 84 61 71 83 261 292 94 82 71 50 34 113 119 98 113 118 86 84 114 111 123 108 81 84 74 55 65 49 96 158 178 151 90 85 80 81 60 52 27 20
26 25 29 38 37 38 30 75 76 73 60 267 153 83 71 99 120 114 152 139 154 151 100 98 87 88 141 137 111 88 73 56 57 32 42 43 52 251 116 92 69 124 114 73 10 58 58
32 35 32 37 33 35 28 63 108 68 226 330 139 103 173 110 105 133 126 117 155 127 124 92 91 114 102 102 87 89 101 53 26 -19 19 33 109 127 224 34 69 54 85 57 30 39 74

GFSGBSN_con_3kmhel_162.txt.gz
Helicity
60 60 65 67 60 65 64 63 77 97 89 81 83 67 50 33 20 11 11 22 18 0 9 -2 5 25 2 42 26 45 28 12 30 53 39 54 56 42 64 52 55 57 24 32 49 71 57
64 68 70 75 68 69 73 85 135 117 133 115 103 93 75 35 27 18 9 21 15 0 14 13 5 11 12 50 46 73 43 27 30 43 56 76 60 46 48 47 61 46 9 -5 -5 10 43
81 73 74 95 72 56 95 177 170 166 149 103 87 67 51 51 22 17 15 16 20 15 13 24 22 25 44 78 43 34 44 26 33 50 44 62 79 78 69 63 77 42 34 30 4 33 43
133 111 82 98 120 192 204 230 206 175 126 115 82 86 85 89 44 30 11 24 27 27 29 32 44 65 67 59 61 53 87 65 72 38 51 54 87 72 80 69 93 87 101 95 50 36 34
158 169 193 226 258 254 224 202 163 177 174 147 129 117 101 64 49 36 10 27 34 15 44 61 80 96 28 22 38 51 38 80 90 101 44 58 96 85 110 114 120 109 123 126 87 70 63
126 139 167 166 166 177 206 281 292 261 263 217 188 146 90 51 50 54 61 51 26 77 95 83 88 76 14 62 42 57 44 84 103 119 131 103 121 127 127 157 117 159 187 165 125 103 115
135 131 148 149 123 90 91 123 189 280 242 253 206 147 96 53 63 67 58 62 101 113 118 65 87 93 26 67 56 95 68 60 83 109 125 134 192 116 86 97 129 162 152 135 75 33 47
95 87 130 121 100 82 54 27 40 20 34 33 44 51 56 46 44 53 86 122 105 81 38 47 71 84 117 76 12 -31 102 118 106 103 130 176 190 56 107 138 175 153 159 144 77 25 -35
120 113 107 80 83 85 78 71 58 76 102 113 111 106 104 124 129 119 128 176 137 71 84 64 121 124 101 151 175 -9 122 153 130 128 100 140 125 120 144 168 202 215 173 129 80 35 4
167 125 100 87 76 78 78 73 74 84 89 85 97 94 83 114 164 160 135 136 96 68 151 73 110 106 97 121 111 65 80 179 167 108 88 110 89 94 125 189 182 194 166 140 139 103 114
165 146 134 104 87 83 76 69 71 67 72 71 75 85 80 118 196 227 127 115 97 110 169 75 89 41 76 146 149 94 76 183 150 126 144 129 125 165 195 124 160 180 177 130 114 104 97
194 173 118 128 92 76 70 64 57 57 57 52 46 47 71 130 164 174 123 98 117 325 330 207 176 169 165 110 137 87 106 93 93 90 81 72 29 75 42 57 82 111 127 148 155 157 238
182 177 179 150 115 89 90 89 77 68 65 50 38 28 51 97 176 195 144 129 328 467 266 194 182 133 119 98 97 95 90 103 124 153 149 117 88 84 114 135 85 110 149 119 140 150 138
182 177 169 155 150 120 95 97 96 84 79 63 52 55 49 62 106 170 179 260 328 269 233 228 183 116 119 127 107 100 127 127 56 96 151 144 178 94 143 124 160 159 166 191 174 154 131
171 193 188 177 168 139 101 91 113 109 102 75 101 88 75 63 83 136 244 368 341 273 178 238 170 180 164 125 109 126 108 125 88 88 124 150 122 132 149 192 183 180 193 79 149 115 144
182 194 207 224 204 179 128 91 117 122 132 113 146 111 76 90 124 180 315 321 321 270 261 186 190 140 141 132 153 167 153 137 119 103 77 142 160 148 67 57 100 131 106 179 173 161 160
125 130 142 162 177 180 152 98 98 94 80 180 196 177 87 149 208 258 346 371 307 201 214 214 209 209 192 154 133 151 154 235 164 143 99 148 197 155 142 60 72 105 189 221 175 189 210
111 108 110 125 124 137 151 130 83 114 183 249 240 236 114 223 256 326 286 348 265 184 149 193 192 178 167 180 166 153 213 248 178 155 224 210 155 112 82 74 56 71 72 93 168 187 176
85 92 90 94 118 110 128 126 107 139 286 381 304 199 158 223 264 296 273 196 158 201 235 232 202 167 174 159 174 177 177 170 218 160 181 185 221 171 134 123 134 151 199 190 140 156 174
61 67 76 76 82 87 96 111 109 73 187 389 397 321 272 196 207 212 215 169 161 137 67 157 232 163 181 156 138 152 193 208 199 97 98 132 130 143 133 122 101 44 52 95 110 123 103
47 43 42 48 55 73 81 82 100 77 233 386 450 333 338 236 210 199 201 181 121 145 102 112 205 180 171 154 183 175 127 76 40 57 63 73 91 121 102 93 75 52 8 -60 -19 66 108
53 59 48 41 42 52 77 97 91 106 82 580 448 337 384 281 197 136 141 174 128 97 109 161 172 190 153 171 142 78 67 87 78 123 146 158 99 104 115 70 55 52 63 71 32 39 73
69 65 60 58 49 47 63 85 99 88 85 367 522 462 489 294 191 171 163 132 63 54 64 81 79 103 93 126 117 121 116 138 110 99 102 139 126 129 96 43 41 36 100 98 107 104 118
67 75 81 78 68 59 67 79 82 85 70 124 431 533 313 246 144 141 102 87 52 16 94 124 87 120 136 159 160 160 124 83 78 76 104 113 119 105 89 60 53 80 39 53 68 54 91
33 60 76 73 76 68 61 71 84 87 85 153 226 397 359 388 148 74 55 39 37 27 57 98 79 139 138 170 142 93 82 56 34 121 156 206 159 137 104 114 72 8 -1 44 47 53 77
20 26 40 50 60 68 63 54 72 102 72 96 253 242 371 306 108 95 56 30 77 96 72 126 107 71 164 180 109 50 63 54 43 63 23 96 122 164 132 99 77 19 35 32 59 43 60
23 24 35 40 46 57 52 52 55 73 82 61 216 290 259 231 127 96 62 68 65 85 87 146 122 109 155 151 116 68 50 73 58 45 57 63 99 135 113 129 66 124 35 69 83 27 29
10 14 24 34 40 47 50 51 48 51 86 71 83 172 291 195 123 103 99 93 94 122 130 134 138 153 179 140 102 70 65 58 59 46 60 45 67 110 117 115 144 71 62 102 32 31 33
22 32 26 26 28 36 46 47 43 50 74 52 49 225 163 203 119 122 136 149 98 111 158 199 131 93 111 121 109 87 64 86 60 34 22 26 42 60 144 73 105 110 82 80 42 23 31

GFSGBSN_con_3kmhel_168.txt.gz
Helicity
42 47 54 63 61 57 54 54 55 50 51 73 78 69 47 53 50 21 20 17 9 -18 -23 -17 -7 -13 -5 72 26 54 48 41 43 49 37 37 37 36 48 47 56 76 78 68 65 63 52
83 73 71 68 62 64 58 64 63 64 65 95 107 72 59 53 39 29 5 29 18 -6 -8 -7 9 -10 49 89 47 45 27 20 39 48 47 49 51 35 40 52 56 90 65 39 16 42 64
159 141 102 82 72 73 73 71 72 86 137 143 119 96 76 63 71 30 23 27 47 37 16 4 29 48 115 75 63 37 38 52 47 48 54 56 60 82 76 77 84 67 60 79 94 111 104
144 137 138 110 93 95 102 117 172 188 162 129 144 140 123 102 71 57 30 57 75 52 2 2 22 54 84 53 33 10 18 22 22 29 42 60 79 85 81 94 125 116 118 107 121 171 148
115 125 146 147 166 174 176 192 167 157 149 153 161 150 128 90 74 34 34 66 38 3 -25 21 60 60 35 34 70 24 47 56 65 69 79 97 101 97 115 123 135 145 124 126 118 118 134
134 121 123 127 119 112 137 155 174 175 180 200 183 167 141 93 57 24 29 30 -78 -34 13 29 52 72 50 82 63 72 68 74 63 98 131 144 140 128 138 134 96 117 152 162 124 121 143
103 111 136 145 146 135 119 91 83 115 158 187 175 123 119 87 46 28 25 -45 44 68 93 84 62 110 -8 23 39 -14 81 136 113 141 118 169 164 102 96 95 128 143 148 138 111 100 75
113 118 129 131 133 145 147 159 152 158 144 123 105 140 101 76 77 70 -24 33 32 36 13 33 101 151 105 107 76 51 111 133 131 115 138 189 133 86 131 123 145 166 153 134 109 105 118
167 163 143 138 128 128 141 126 119 106 104 118 125 120 106 74 23 6 59 94 111 60 32 -41 39 74 104 142 152 47 51 145 173 128 119 115 115 107 105 141 163 172 167 153 136 143 144
211 208 215 175 135 117 116 115 105 81 68 76 95 105 112 135 83 74 72 111 90 34 84 25 72 42 61 60 71 35 37 71 117 88 71 73 55 84 132 143 137 168 115 141 159 196 145
196 180 182 178 151 155 115 113 109 92 77 78 84 89 92 77 69 100 92 100 68 55 210 99 113 46 48 73 69 56 37 65 62 91 123 100 112 106 123 99 89 108 106 138 136 132 165
231 221 194 180 160 163 138 86 78 70 75 84 92 89 89 75 69 58 86 103 108 230 313 245 150 129 143 115 108 96 94 88 76 70 93 76 91 76 76 68 111 110 127 159 173 165 170
218 223 215 205 196 205 176 139 102 82 69 83 85 77 79 63 85 66 101 143 244 368 300 208 184 170 171 156 145 112 98 101 92 92 93 73 74 79 87 83 74 123 163 164 177 182 128
208 219 225 222 223 212 202 190 137 92 88 80 83 93 75 63 56 74 130 258 372 303 246 250 206 195 168 148 133 157 167 142 99 138 128 95 147 105 65 71 83 91 129 165 117 113 127
197 205 209 206 208 218 211 203 192 124 67 84 161 135 101 65 56 84 200 352 350 253 242 268 209 170 192 165 164 173 131 138 116 124 112 88 78 88 105 94 79 91 113 86 195 216 174
180 189 190 201 194 203 208 204 188 184 130 136 196 181 138 83 81 142 267 304 322 272 316 268 201 181 170 126 159 164 149 134 126 114 131 127 114 85 77 96 100 92 72 148 198 222 197
159 164 178 178 174 169 181 185 191 196 153 150 229 236 174 98 195 254 343 329 288 220 198 215 226 215 162 146 150 181 164 171 175 158 129 143 145 105 105 101 99 132 135 161 148 202 192
119 121 128 136 143 139 143 156 165 187 153 212 259 277 265 207 302 348 294 280 205 170 158 141 146 144 169 182 169 161 167 174 186 155 175 185 161 136 90 144 148 105 81 109 174 167 204
92 96 95 104 112 117 127 134 145 151 129 158 239 250 158 372 385 375 336 249 175 182 171 167 191 138 151 149 167 151 168 169 187 156 171 146 180 171 183 177 153 146 150 149 169 193 204
81 94 87 84 88 94 108 110 139 144 123 126 143 292 227 285 358 297 309 195 181 98 90 103 135 180 162 165 164 191 175 140 171 166 156 166 183 175 150 111 126 170 177 190 199 236 196
58 62 69 73 73 69 78 92 111 150 123 108 132 148 204 240 313 341 306 216 182 166 102 105 131 103 150 181 175 182 160 166 150 158 142 114 125 93 105 94 121 146 138 156 177 166 216
42 46 54 56 71 59 48 65 88 117 134 137 162 126 233 218 145 175 227 187 163 183 126 101 61 75 113 144 169 142 135 129 109 129 90 78 83 91 112 88 88 101 131 135 129 128 157
31 35 44 51 53 55 55 55 66 94 110 173 79 108 60 143 151 179 244 179 129 131 82 93 82 92 101 100 103 137 127 113 99 76 50 78 79 95 110 45 69 89 113 113 141 149 127
22 25 33 42 48 56 58 55 55 65 74 145 106 80 79 16 108 151 139 130 136 136 98 97 64 86 87 96 77 140 171 146 132 113 115 116 127 139 108 64 114 85 94 52 75 90 117
36 43 40 42 45 49 61 71 69 63 56 119 92 81 74 46 33 60 84 133 78 50 72 40 55 59 39 83 161 142 184 171 121 90 82 115 149 154 133 104 58 22 22 62 66 57 57
39 47 45 39 45 45 47 41 70 80 66 101 104 103 69 3 -18 33 36 82 172 164 73 68 48 81 176 104 195 191 215 137 102 96 102 70 88 127 134 106 37 81 42 56 18 71 26
24 28 25 24 31 37 38 39 35 58 73 97 104 76 104 58 -39 48 52 91 164 188 84 48 69 155 191 96 43 144 214 69 118 89 61 92 39 53 94 114 117 68 32 51 70 45 40
16 13 16 15 16 26 33 37 38 45 53 104 103 92 112 106 67 95 39 56 138 119 69 59 141 151 151 110 81 61 33 57 84 86 108 98 59 81 94 88 55 68 70 62 60 34 33
28 20 21 15 11 17 23 28 33 42 43 61 124 90 84 104 81 69 8 -15 31 34 52 89 83 62 69 89 81 67 97 84 71 105 43 74 109 90 85 61 33 21 16 28 17 -12 25

GFSGBSN_con_3kmhel_171.txt.gz
Helicity
41 43 45 44 47 49 50 51 48 42 36 45 81 73 66 45 23 13 -0 6 15 13 42 17 -2 -21 -23 26 17 56 36 27 36 49 38 35 46 55 68 56 62 73 80 69 62 55 57
86 81 77 71 66 58 54 55 56 54 52 83 101 85 64 45 18 19 14 15 32 23 26 20 27 21 33 54 56 48 38 46 54 54 52 43 53 52 59 62 68 82 73 55 54 65 86
131 117 113 108 95 81 82 78 71 75 111 129 115 102 98 68 55 46 29 30 24 24 34 27 43 67 105 53 59 36 31 30 21 38 57 46 61 69 76 77 72 77 74 86 93 108 114
135 130 135 125 113 96 107 113 128 147 167 191 182 139 122 90 75 28 19 31 47 45 14 43 43 59 71 60 62 62 39 9 29 35 37 35 58 82 84 88 93 87 91 113 143 164 149
148 169 174 162 171 148 159 155 149 162 167 157 159 140 109 84 57 36 25 59 39 45 30 7 45 45 24 47 86 63 65 -2 51 65 65 83 88 94 98 96 110 123 102 115 131 123 143
193 190 199 148 170 165 155 156 173 174 157 163 166 156 127 98 54 53 47 36 19 51 51 37 50 92 32 53 54 62 66 38 79 83 108 127 129 105 97 80 98 119 120 125 114 148 126
192 193 183 169 136 123 136 147 154 143 150 151 133 129 111 84 56 47 13 -35 43 58 88 99 50 126 56 68 47 100 50 45 102 121 99 137 107 78 64 83 110 106 103 91 79 78 76
161 122 111 106 97 96 109 122 125 119 107 130 129 89 74 71 73 50 9 -6 -13 32 34 17 78 123 109 113 89 1 65 120 138 120 152 160 88 48 97 121 119 109 84 76 72 82 96
106 99 103 103 108 120 124 131 144 149 144 148 144 137 113 102 56 43 31 57 67 50 7 -27 45 67 85 72 70 52 34 63 121 123 97 93 96 122 70 79 61 88 94 96 98 123 121
140 158 150 162 170 159 134 147 148 127 115 128 137 140 138 151 91 69 71 92 68 44 77 21 55 21 60 32 67 2 4 27 44 54 87 60 56 46 74 53 43 54 34 51 86 114 110
163 188 188 188 197 180 160 140 130 106 106 115 114 117 117 109 84 89 67 84 63 64 235 97 96 37 44 65 61 59 32 65 61 61 72 74 74 62 45 41 66 83 100 92 107 111 130
206 204 205 207 204 191 176 173 130 99 88 97 106 107 108 87 74 39 63 76 90 153 265 213 158 138 141 130 110 98 81 95 91 97 99 67 88 74 70 56 71 107 126 147 141 146 120
192 203 202 205 216 217 215 200 167 112 93 95 96 94 102 64 95 47 69 122 164 301 199 213 201 176 173 150 136 104 109 119 88 80 71 52 56 92 94 108 88 112 131 160 120 123 132
166 173 187 201 217 220 215 222 214 188 140 97 108 125 94 60 62 71 108 224 327 301 221 229 218 184 175 147 118 138 152 119 93 108 74 52 71 66 67 66 97 83 105 168 128 126 119
165 189 205 212 232 236 225 220 229 213 189 135 166 189 163 70 63 77 213 314 319 217 225 239 191 147 147 138 145 143 127 119 85 96 117 108 77 78 78 81 89 102 120 98 134 171 157
173 193 201 216 224 224 223 212 222 220 206 135 184 178 195 95 82 144 273 339 321 279 286 249 194 190 172 129 128 123 122 125 101 82 98 104 99 81 105 77 83 91 107 147 155 172 171
161 172 173 177 181 186 190 202 201 205 207 111 211 248 206 149 172 259 354 331 303 231 193 188 184 202 201 154 141 142 160 143 135 118 112 132 130 120 132 101 83 115 147 144 126 177 161
146 151 150 149 154 159 156 171 178 192 193 165 234 335 220 217 303 322 310 316 226 210 186 152 155 154 150 142 150 159 136 137 145 138 143 149 155 151 118 143 130 124 108 99 151 142 172
132 128 127 127 125 126 133 130 143 173 149 189 285 285 201 204 305 318 330 267 188 179 168 150 146 110 125 143 135 120 132 129 129 106 128 133 171 163 159 140 115 117 130 138 154 150 144
97 95 97 90 87 95 108 125 121 145 174 168 259 315 264 233 281 293 281 216 246 141 94 122 110 131 137 132 118 134 134 129 125 125 115 138 181 178 158 159 148 147 138 130 151 190 139
68 61 67 76 84 89 73 86 109 115 156 162 180 283 262 247 290 289 197 210 156 165 108 86 97 78 95 118 101 127 123 131 130 142 146 154 170 134 113 81 91 79 84 108 138 155 201
54 54 47 50 57 61 81 56 65 86 116 172 230 236 221 165 134 146 190 162 157 170 150 95 79 72 88 97 89 88 126 149 129 129 130 134 143 117 136 74 53 91 127 151 134 121 133
44 42 41 41 41 47 59 68 71 56 84 160 166 106 163 143 136 99 164 147 93 80 104 107 79 89 97 91 59 73 81 90 133 157 146 140 122 98 113 54 80 113 136 96 93 74 73
32 34 30 26 30 41 52 66 67 66 65 117 115 152 137 124 97 72 -30 26 44 55 189 93 120 123 102 110 70 63 90 91 134 111 119 123 144 148 106 98 120 143 77 31 22 25 52
19 21 23 24 35 38 48 57 64 69 47 119 122 120 121 95 50 37 35 56 50 52 46 73 187 120 56 84 58 59 90 141 141 129 124 163 205 116 134 112 75 60 39 42 59 25 21
27 26 23 21 32 50 50 48 44 38 62 97 107 74 106 112 27 35 17 41 -26 27 101 104 95 95 62 98 100 94 78 80 99 129 188 159 104 69 128 121 47 68 86 52 36 6 93
40 29 17 20 22 26 32 37 38 40 32 88 98 63 105 106 36 97 77 41 20 82 68 88 51 54 95 117 84 83 41 41 151 191 155 158 90 69 97 117 123 40 60 40 48 61 62
47 34 33 23 23 21 25 30 31 28 33 78 92 63 111 110 42 69 92 96 70 -9 44 103 92 116 104 89 113 118 95 88 24 20 63 71 97 132 127 166 86 66 88 41 50 25 8
57 50 43 23 14 15 19 22 26 21 24 43 110 97 72 117 83 77 45 -6 -53 -16 -22 32 79 88 60 83 80 99 71 16 47 40 65 102 132 127 126 90 110 84 67 -0 15 -23 -22